Regional Weather Roundup
Issued by NWS Albany, NY

Home | Current Version | Previous Version | Text Only | Print | Product List | Glossary On
Versions: 1 2 3 4 5 6 7 8 9 10 11 12 13 14 15 16 17 18 19 20 21 22 23 24 25 26 27 28 29 30 31 32 33 34 35 36 37 38 39 40 41 42 43 44 45 46 47
000
ASUS41 KALY 050110
RWRALY

NEW YORK STATE HOURLY WEATHER ROUNDUP
NATIONAL WEATHER SERVICE ALBANY NY
900 PM EDT FRI SEP 04 2015

NOTE: "FAIR" INDICATES FEW OR NO CLOUDS BELOW 12,000 FEET WITH NO
SIGNIFICANT WEATHER AND/OR NO OBSTRUCTIONS TO VISIBILITY.

NYZ032-033-038>043-046>054-057>066-NYZ062>081-050200-
EAST


CITY           SKY/WX    TMP DP  RH WIND       PRES   REMARKS
ALBANY         PTCLDY    74  60  61 SE5       30.19R
GLENS FALLS    MOCLDY    71  59  65 CALM      30.19R
POUGHKEEPSIE   CLEAR     74  63  68 E6        30.16R
MONTGOMERY     CLEAR     72  68  87 CALM      30.18R
WHITE PLAINS   CLEAR     72  63  73 NE3       30.18R
ISLIP          CLEAR     71  63  75 E9        30.17R
NEW YORK CITY  PTCLDY    76  62  62 SE8       30.16R
CENTRAL PARK   CLEAR     76  62  62 VRB5      30.19R
$$

NYZ005>009-017-018-044>046-055-056-050200-
CENTRAL


CITY           SKY/WX    TMP DP  RH WIND       PRES   REMARKS
FULTON         CLEAR     71  61  70 NE3       30.14R
SYRACUSE       PTCLDY    75  63  66 NE6       30.13R
ROME           CLEAR     73  64  73 E6        30.17R
ELMIRA         PTCLDY    76  67  73 NE7       30.13R
BINGHAMTON     CLOUDY    72  65  78 SE12      30.19R
MONTICELLO     CLOUDY    68  66  94 CALM      30.23R
$$

NYZ026>034-041>043-050200-
NORTH


CITY           SKY/WX    TMP DP  RH WIND       PRES   REMARKS
WATERTOWN      CLEAR     64  57  78 NE6       30.16R
FORT DRUM      NOT AVBL
MASSENA        CLEAR     64  51  62 NE6       30.21R
SARANAC LAKE   CLEAR     63  54  72 NE7       30.24R
PLATTSBURGH    CLEAR     67  56  67 NW6       30.21R
$$

NYZ001>004-010>016-019>021-050200-
WEST


CITY           SKY/WX    TMP DP  RH WIND       PRES   REMARKS
NIAGARA FALLS  PTCLDY    71  55  56 E8        30.12R
BUFFALO        PTCLDY    73  60  63 NE8       30.13R
DUNKIRK        PTCLDY    70  68  93 CALM      30.11R
JAMESTOWN      MOCLDY    70  63  78 S6        30.18R
WELLSVILLE     PTCLDY    72  62  71 CALM      30.21R
ROCHESTER      CLEAR     72  59  63 E6        30.15R
PENN YAN       CLEAR     72  65  78 CALM      30.16R
$$

             KEY
       WCI = WIND CHILL INDEX
       VSB = VISIBILITY
       HX  = HEAT INDEX
$$



USA.gov is the U.S. government's official web portal to all federal, state and local government web resources and services.